Weather in Sacramento

United States     38°33′42″N   121°26′59″W
temp.,
°C
wind,
m/s
gust,
m/s
humid.,
%
clouds,
%
prec.,
mm/h
press.,
hPa
HPBL,
m
18 september, sat
sat1823:00+14ssw511830 0.0 1014270
02:00+14sw612850 0.0 1014335
05:00+13ssw510840 0.0 1015368
08:00+15ssw6118224 0.0 1016472
11:00+21sw78580 0.0 1017809
14:00+25sw67500 0.0 10171183
17:00+24sw67530 0.0 10151031
20:00+18sw487746 0.0 1017289
19 september, sun
sun1923:00+18sw488390 0.1 1017277
02:00+18ssw4984100 0.1 1017399
05:00+18sw368683 0.1 1016370
08:00+17sw238915 0.0 1017148
11:00+23nnw334918 0.0 10171299
14:00+27nnw44313 0.0 10151976
17:00+28nw45262 0.0 10142056
20:00+22nw35350 0.0 1014163
20 september, mon
mon2023:00+19nw36375 0.0 1014114
02:00+17nw36435 0.0 1013131
05:00+16nnw49431 0.0 1013224
08:00+17nnw38400 0.0 1014304
11:00+25n45230 0.0 1014656
14:00+31n33150 0.0 10121072
17:00+33ene22130 0.0 10111100
20:00+26sse22180 0.0 101114
21 september, tue
tue2123:00+23ssw11230 0.0 101311
02:00+21se11270 0.0 101412
05:00+19nw22280 0.0 101521
08:00+20nnw24270 0.0 1017116
11:00+28nnw33140 0.0 1017481
14:00+35nnw11110 0.0 1015841
17:00+36nnw11110 0.0 1014955
20:00+28sw45180 0.0 101462
22 september, wed
wed2223:00+23wsw23270 0.0 101652
02:00+22sse22290 0.0 101628
05:00+20s11316 0.0 101722
08:00+22ene01300 0.0 101834
11:00+30w11185 0.0 1017479
14:00+36w22130 0.0 10151198
17:00+37sw3312100 0.0 10121651
20:00+25sw47265 0.0 1013115